When you browse on this site, cookies collect data to enhance your experience and personalize the content and advertising you see.
Visit our Privacy Policy to learn more. By continuing to use the site, you agree to this use of cookies and data.

Stündliche Wetter Budnye

Heute, 28 September, Montag

Zeit Temperatur Niederschläge Wind Luftdruck Luftfeuchtigkeit
00:00 +11°C° 0 mm 4 m/S 742 mmHg 89%
01:00 +10°C° 0 mm 4 m/S 742 mmHg 88%
02:00 +9°C° 0 mm 5 m/S 743 mmHg 88%
03:00 +8°C° 0 mm 4 m/S 743 mmHg 88%
04:00 +8°C° 0 mm 4 m/S 743 mmHg 87%
05:00 +9°C° 0 mm 3 m/S 743 mmHg 87%
06:00 +9°C° 0 mm 3 m/S 743 mmHg 86%
07:00 +9°C° 0 mm 3 m/S 744 mmHg 85%
08:00 +9°C° 0 mm 3 m/S 744 mmHg 85%
09:00 +11°C° 0 mm 3 m/S 745 mmHg 78%
10:00 +12°C° 0 mm 3 m/S 745 mmHg 72%
11:00 +13°C° 0 mm 3 m/S 746 mmHg 66%
12:00 +14°C° 0 mm 3 m/S 746 mmHg 62%
13:00 +16°C° 0 mm 3 m/S 746 mmHg 59%
14:00 +17°C° 0 mm 3 m/S 746 mmHg 56%
15:00 +16°C° 0 mm 2 m/S 746 mmHg 59%
16:00 +16°C° 0 mm 2 m/S 746 mmHg 62%
17:00 +15°C° 0 mm 1 m/S 746 mmHg 65%
18:00 +14°C° 0 mm 1 m/S 746 mmHg 69%
19:00 +12°C° 0 mm 2 m/S 746 mmHg 73%
20:00 +10°C° 0 mm 2 m/S 746 mmHg 77%
21:00 +10°C° 0 mm 2 m/S 746 mmHg 79%
22:00 +9°C° 0 mm 2 m/S 746 mmHg 80%
23:00 +9°C° 0 mm 2 m/S 746 mmHg 82%

Morgen, 29 September, Dienstag

Zeit Temperatur Niederschläge Wind Luftdruck Luftfeuchtigkeit
00:00 +9°C° 0 mm 2 m/S 746 mmHg 82%
01:00 +9°C° 0 mm 2 m/S 746 mmHg 83%
02:00 +8°C° 0 mm 3 m/S 746 mmHg 83%
03:00 +9°C° 0 mm 3 m/S 746 mmHg 83%
04:00 +9°C° 0 mm 3 m/S 745 mmHg 82%
05:00 +8°C° 0 mm 4 m/S 745 mmHg 81%
06:00 +8°C° 0 mm 4 m/S 745 mmHg 78%
07:00 +10°C° 0 mm 4 m/S 745 mmHg 75%
08:00 +11°C° 0 mm 4 m/S 745 mmHg 71%
09:00 +13°C° 0 mm 4 m/S 745 mmHg 66%
10:00 +15°C° 0 mm 4 m/S 745 mmHg 61%
11:00 +16°C° 0 mm 5 m/S 745 mmHg 56%
12:00 +18°C° 0 mm 4 m/S 745 mmHg 54%
13:00 +19°C° 0 mm 4 m/S 744 mmHg 53%
14:00 +19°C° 0 mm 4 m/S 744 mmHg 51%
15:00 +19°C° 0 mm 4 m/S 744 mmHg 56%
16:00 +18°C° 0 mm 3 m/S 744 mmHg 60%
17:00 +17°C° 0 mm 3 m/S 743 mmHg 65%
18:00 +14°C° 0 mm 3 m/S 743 mmHg 69%
19:00 +13°C° 0 mm 3 m/S 744 mmHg 74%
20:00 +11°C° 0 mm 3 m/S 744 mmHg 79%
21:00 +11°C° 0 mm 3 m/S 743 mmHg 83%
22:00 +10°C° 0 mm 3 m/S 743 mmHg 87%
23:00 +10°C° 0 mm 3 m/S 743 mmHg 91%

übermorgen, 30 September, Mittwoch

Zeit Temperatur Niederschläge Wind Luftdruck Luftfeuchtigkeit
00:00 +10°C° 0 mm 3 m/S 743 mmHg 91%
01:00 +10°C° 0 mm 3 m/S 743 mmHg 92%
02:00 +10°C° 0 mm 4 m/S 742 mmHg 92%
03:00 +11°C° 0 mm 4 m/S 742 mmHg 89%
04:00 +11°C° 0 mm 4 m/S 742 mmHg 87%
05:00 +12°C° 0 mm 4 m/S 742 mmHg 84%
06:00 +12°C° 0 mm 4 m/S 742 mmHg 82%
07:00 +12°C° 0 mm 4 m/S 742 mmHg 80%
08:00 +12°C° 0 mm 4 m/S 741 mmHg 77%
09:00 +13°C° 0 mm 5 m/S 741 mmHg 71%
10:00 +14°C° 0 mm 5 m/S 741 mmHg 65%
11:00 +16°C° 0 mm 5 m/S 741 mmHg 59%
12:00 +16°C° 0 mm 5 m/S 741 mmHg 59%
13:00 +17°C° 0 mm 4 m/S 741 mmHg 59%
14:00 +18°C° 0 mm 4 m/S 741 mmHg 59%
15:00 +17°C° 0 mm 4 m/S 740 mmHg 61%
16:00 +15°C° 0 mm 4 m/S 740 mmHg 63%
17:00 +15°C° 0 mm 4 m/S 740 mmHg 65%
18:00 +14°C° 0 mm 4 m/S 741 mmHg 65%
19:00 +13°C° 0 mm 4 m/S 741 mmHg 65%
20:00 +13°C° 0 mm 4 m/S 741 mmHg 65%
21:00 +12°C° 0 mm 4 m/S 741 mmHg 66%
22:00 +11°C° 0 mm 4 m/S 741 mmHg 67%
23:00 +10°C° 0 mm 4 m/S 740 mmHg 68%

1 Oktober, Donnerstag

Zeit Temperatur Niederschläge Wind Luftdruck Luftfeuchtigkeit
00:00 +10°C° 0 mm 3 m/S 740 mmHg 69%
01:00 +9°C° 0 mm 3 m/S 740 mmHg 71%
02:00 +9°C° 0 mm 3 m/S 740 mmHg 72%
03:00 +9°C° 0 mm 3 m/S 740 mmHg 71%
04:00 +9°C° 0 mm 3 m/S 740 mmHg 70%
05:00 +9°C° 0 mm 3 m/S 740 mmHg 69%
06:00 +8°C° 0 mm 4 m/S 740 mmHg 66%
07:00 +10°C° 0 mm 4 m/S 740 mmHg 64%
08:00 +10°C° 0 mm 4 m/S 740 mmHg 61%
09:00 +12°C° 0 mm 4 m/S 740 mmHg 64%
10:00 +13°C° 0 mm 4 m/S 740 mmHg 66%
11:00 +14°C° 0 mm 4 m/S 740 mmHg 69%
12:00 +14°C° 0 mm 4 m/S 740 mmHg 70%
13:00 +14°C° 0 mm 4 m/S 740 mmHg 72%
14:00 +15°C° 0 mm 4 m/S 740 mmHg 74%
15:00 +15°C° 0 mm 4 m/S 740 mmHg 74%
16:00 +14°C° 0 mm 4 m/S 740 mmHg 74%
17:00 +14°C° 0 mm 4 m/S 739 mmHg 74%
18:00 +13°C° 0 mm 4 m/S 740 mmHg 76%
19:00 +13°C° 0 mm 4 m/S 740 mmHg 78%
20:00 +12°C° 0 mm 4 m/S 740 mmHg 80%
21:00 +11°C° 0 mm 4 m/S 740 mmHg 83%
22:00 +10°C° 0 mm 3 m/S 740 mmHg 86%
23:00 +9°C° 0 mm 3 m/S 739 mmHg 90%

2 Oktober, Freitag

Zeit Temperatur Niederschläge Wind Luftdruck Luftfeuchtigkeit
00:00 +9°C° 0 mm 3 m/S 739 mmHg 90%
01:00 +9°C° 0 mm 3 m/S 739 mmHg 90%
02:00 +8°C° 0 mm 3 m/S 739 mmHg 91%
03:00 +8°C° 0 mm 3 m/S 739 mmHg 90%
04:00 +8°C° 0 mm 3 m/S 739 mmHg 90%
05:00 +8°C° 0 mm 3 m/S 739 mmHg 89%
06:00 +9°C° 0 mm 3 m/S 739 mmHg 87%
07:00 +8°C° 0 mm 4 m/S 738 mmHg 85%
08:00 +10°C° 0 mm 4 m/S 738 mmHg 82%
09:00 +11°C° 0 mm 4 m/S 738 mmHg 82%
10:00 +12°C° 0 mm 4 m/S 738 mmHg 82%
11:00 +12°C° 0 mm 4 m/S 738 mmHg 82%
12:00 +13°C° 0 mm 5 m/S 738 mmHg 81%
13:00 +14°C° 0 mm 5 m/S 738 mmHg 79%
14:00 +14°C° 0 mm 5 m/S 738 mmHg 77%
15:00 +14°C° 0 mm 5 m/S 738 mmHg 77%
16:00 +14°C° 0 mm 4 m/S 738 mmHg 78%
17:00 +14°C° 0 mm 4 m/S 738 mmHg 78%
18:00 +13°C° 0 mm 4 m/S 738 mmHg 81%
19:00 +13°C° 0 mm 4 m/S 738 mmHg 83%
20:00 +12°C° 0 mm 4 m/S 739 mmHg 86%
21:00 +12°C° 0 mm 4 m/S 739 mmHg 88%
22:00 +10°C° 0 mm 5 m/S 739 mmHg 90%
23:00 +10°C° 0 mm 5 m/S 739 mmHg 92%

3 Oktober, Samstag

Zeit Temperatur Niederschläge Wind Luftdruck Luftfeuchtigkeit
00:00 +10°C° 0 mm 5 m/S 739 mmHg 91%
01:00 +10°C° 0 mm 5 m/S 738 mmHg 90%
02:00 +10°C° 0 mm 5 m/S 738 mmHg 90%
03:00 +12°C° 0 mm 5 m/S 738 mmHg 89%
04:00 +12°C° 0 mm 5 m/S 738 mmHg 88%
05:00 +12°C° 0 mm 5 m/S 738 mmHg 88%
06:00 +12°C° 0.2 mm 5 m/S 738 mmHg 89%
07:00 +11°C° 0.2 mm 6 m/S 738 mmHg 90%
08:00 +11°C° 0.2 mm 6 m/S 738 mmHg 91%
09:00 +11°C° 0.5 mm 6 m/S 738 mmHg 91%
10:00 +11°C° 0.5 mm 6 m/S 738 mmHg 90%
11:00 +11°C° 0.5 mm 6 m/S 738 mmHg 90%
12:00 +13°C° 0.1 mm 6 m/S 738 mmHg 88%
13:00 +14°C° 0.1 mm 6 m/S 738 mmHg 86%
14:00 +15°C° 0.1 mm 6 m/S 738 mmHg 84%
15:00 +14°C° 0.1 mm 6 m/S 738 mmHg 85%
16:00 +14°C° 0.1 mm 6 m/S 738 mmHg 86%
17:00 +14°C° 0.1 mm 6 m/S 738 mmHg 88%
18:00 +14°C° 0 mm 6 m/S 738 mmHg 87%
19:00 +14°C° 0 mm 6 m/S 738 mmHg 86%
20:00 +14°C° 0 mm 6 m/S 739 mmHg 86%
21:00 +14°C° 0 mm 6 m/S 739 mmHg 84%
22:00 +14°C° 0 mm 6 m/S 739 mmHg 83%
23:00 +15°C° 0 mm 6 m/S 739 mmHg 81%
Mehr zeigen